Regional Weather Roundup
Issued by NWS Raleigh/Durham, NC

Current Version | Previous Version | Text Only | Print | Product List | Glossary On
Versions: 1 2 3 4 5 6 7 8 9 10 11 12 13 14 15 16 17 18 19 20 21 22 23 24 25 26 27
000 ASUS42 KRAH 241310 RWRRAH NORTH CAROLINA WEATHER ROUNDUP NATIONAL WEATHER SERVICE RALEIGH NC 900 AM EDT THU JUN 24 2021 NOTE: "FAIR" INDICATES FEW OR NO CLOUDS BELOW 12,000 FEET WITH NO SIGNIFICANT WEATHER AND/OR OBSTRUCTIONS TO VISIBILITY. NCZ001-053-055-056-065-067-241400- WESTERN NORTH CAROLINA CITY SKY/WX TMP DP RH WIND PRES REMARKS ASHEVILLE CLOUDY 64 59 83 CALM 30.33R JEFFERSON NOT AVBL MORGANTON CLOUDY 68 60 75 E5 30.37R HICKORY CLOUDY 66 58 75 E7 30.33R WILKESBORO NOT AVBL RUTHERFORDTON RAIN 63 63 100 E3 30.33S MOUNT AIRY PTSUNNY 64 56 75 E3 30.37R BOONE N/A 59 57 93 E6 30.38S $$ NCZ021-022-025-041-071-084-088-241400- CENTRAL NORTH CAROLINA CITY SKY/WX TMP DP RH WIND PRES REMARKS CHARLOTTE PTSUNNY 68 56 65 SE12G20 30.33R GREENSBORO CLOUDY 64 55 72 VRB3 30.35R WINSTON-SALEM CLOUDY 65 56 72 VRB3 30.36R RALEIGH-DURHAM PTSUNNY 67 53 61 NE9 30.33R FORT BRAGG SUNNY 68 54 60 NE7 30.31R FAYETTEVILLE SUNNY 68 54 60 VRB7 30.31R BURLINGTON PTSUNNY 65 54 67 E3 30.34R ROXBORO PTSUNNY 64 52 63 E6 30.36S HENDERSON MOSUNNY 64 53 66 NE6 30.34S LOUISBURG MOSUNNY 64 54 68 NE5 30.36R LAURINBURG SUNNY 67 54 63 E8 30.32R $$ NCZ011-015-027-028-043-044-047-080-103-241400- NORTHEASTERN NORTH CAROLINA CITY SKY/WX TMP DP RH WIND PRES REMARKS ROCKY MT-WILSO SUNNY 69 55 60 N8 30.33R GREENVILLE SUNNY 66 55 68 NE8 30.32R WASHINGTON SUNNY 67 56 67 N6 30.31R ELIZABETH CITY SUNNY 70 56 61 NE16 30.29R MANTEO SUNNY 70 57 64 NE13 30.29R CAPE HATTERAS SUNNY 74 64 71 NE8G17 30.24R $$ NCZ078-087-090-091-093-098-101-241400- SOUTHEASTERN NORTH CAROLINA CITY SKY/WX TMP DP RH WIND PRES REMARKS GOLDSBORO SUNNY 67 55 64 NE12 30.29R KENANSVILLE SUNNY 66 57 72 N6 30.32R NEW BERN SUNNY 67 57 70 NE10 30.30R CHERRY POINT NOT AVBL BEAUFORT SUNNY 72 61 68 NE13G20 30.25R JACKSONVILLE MOSUNNY 68 57 68 N9 30.27R WILMINGTON SUNNY 69 57 65 N10 30.27R $$

USA.gov is the U.S. government's official web portal to all federal, state and local government web resources and services.